#timestamp,LO_Frequency,Hit,StdDev 
1642687215.2,286047001.8,N
1642687235.9,286047003.5,N
1642687255.7,286047001.9,N
1642687275.6,286047004.1,N
1642687295.4,286047002.0,N
1642687315.2,286047002.6,N
1642687335.1,286047001.4,N
1642687336.0,286047001.4,N
1642687355.8,286047004.3,N
1642687375.7,286047003.6,N
1642687395.5,286047003.2,N
1642687415.3,286047004.1,N
1642687435.2,286047003.1,N
1642687455.0,286047005.9,Y
1642687455.9,286047005.9,P
1642687475.8,286047002.2,N
1642687495.6,286047002.7,N
1642687515.4,286047002.6,N
1642687535.3,286047001.7,N
1642687555.1,286047001.6,N
1642687575.8,286047001.4,N
1642687595.7,286047003.2,N
1642687615.5,286047003.6,N
1642687635.4,286047003.8,N
1642687655.2,286047003.1,N
1642687675.0,286047006.0,Y
1642687675.9,286047006.0,P
1642687695.8,286047002.3,N
1642687715.6,286046998.2,N
1642687735.4,286046999.5,N
1642687755.3,286046999.1,N
1642687775.1,286046998.5,N
1642687795.9,286047000.8,N
1642687815.7,286047001.0,N
1642687835.5,286046999.9,N
1642687855.4,286047000.0,N
1642687875.2,286046998.2,N
1642687895.1,286046998.4,N
1642687896.0,286046998.4,N
1642687915.8,286046998.3,N
1642687935.6,286047001.1,N
1642687955.5,286047000.0,N
1642687975.3,286047002.7,N
1642687995.1,286047001.8,N
1642688015.9,286047001.4,N
1642688035.7,286047001.5,N
1642688055.6,286047004.4,N
1642688075.4,286047004.4,N
1642688095.2,286047001.8,N
1642688115.1,286047002.4,N
1642688116.0,286047002.4,N
1642688135.8,286047002.8,N
1642688155.7,286047002.4,N
1642688175.5,286047001.9,N
1642688195.3,286047002.6,N
1642688215.2,286047002.2,N
1642688235.0,286046999.8,N
1642688235.9,286046999.8,N
1642688255.8,286047002.0,N
1642688275.6,286047001.4,N
1642688295.4,286047004.4,N
1642688315.3,286047003.9,N
1642688335.1,286047001.9,N
1642688355.8,286046999.7,N
1642688375.7,286047000.7,N
1642688395.5,286046998.5,N
1642688415.4,286047000.2,N
1642688435.2,286047001.5,N
1642688455.0,286046999.7,N
1642688455.9,286046999.7,N
1642688475.8,286047002.8,N
1642688495.6,286046999.9,N
1642688515.5,286047001.2,N
1642688535.3,286047000.1,N
1642688555.1,286047002.6,N
1642688575.9,286047001.5,N
1642688595.7,286047001.6,N
1642688615.5,286047000.5,N
1642688635.4,286047001.2,N
1642688655.2,286046999.4,N
1642688675.1,286046999.4,N
1642688676.0,286046999.4,N
1642688695.8,286046998.9,N
1642688715.6,286046999.3,N
1642688735.5,286046996.9,N
1642688755.3,286046998.9,N
1642688775.2,286046999.1,N
1642688795.9,286046998.3,N
1642688815.7,286046998.9,N
1642688835.6,286047000.8,N
1642688855.7,286046998.2,N
1642688875.6,286047001.1,N
1642688895.4,286046998.6,N
1642688915.2,286047001.0,N
1642688935.1,286047000.7,N
1642688936.0,286047000.7,N
1642688955.8,286046999.6,N
1642688975.6,286046998.7,N
1642688995.5,286046998.3,N
1642689015.3,286047002.4,N
1642689035.2,286047000.6,N
1642689055.9,286046998.6,N
1642689075.7,286047000.0,N
1642689095.6,286047001.0,N
1642689115.4,286046998.9,N
1642689135.2,286046999.0,N
1642689155.1,286047001.1,N
1642689156.0,286047001.1,N
1642689175.8,286047002.7,N
1642689195.7,286047000.7,N
1642689215.5,286047000.9,N
1642689235.3,286047000.1,N
1642689255.2,286047000.1,N
1642689275.0,286047002.4,N
1642689275.9,286047002.4,N
1642689295.7,286047002.1,N
1642689315.6,286046999.7,N
1642689335.4,286047000.9,N
1642689355.3,286047000.7,N
1642689375.1,286047000.5,N
1642689376.0,286047000.5,N
1642689395.8,286047000.2,N
1642689415.7,286047000.5,N
1642689435.5,286047000.9,N
1642689455.4,286046998.3,N
1642689475.2,286046998.3,N
1642689495.0,286047000.7,N
1642689495.9,286047000.7,N
1642689515.8,286047002.4,N
1642689535.6,286047000.3,N
1642689555.4,286046998.2,N
1642689575.3,286046998.2,N
1642689595.1,286046999.6,N
1642689615.9,286046999.1,N
1642689635.7,286046998.6,N
1642689655.5,286046998.5,N
1642689675.4,286046998.1,N
1642689695.2,286046999.8,N
1642689715.0,286047000.4,N
1642689716.0,286047000.4,N
1642689735.8,286047001.1,N
1642689755.6,286047001.1,N
1642689775.5,286046999.5,N
1642689795.3,286047001.1,N
1642689815.1,286047000.9,N
1642689835.9,286046998.1,N
1642689855.7,286047001.1,N
1642689875.6,286046999.8,N
1642689895.4,286047001.0,N
1642689915.2,286047000.4,N
1642689935.1,286047001.5,N
1642689936.0,286047001.5,N
1642689955.8,286047002.0,N
1642689975.7,286047002.8,N
1642689995.5,286046998.5,N
1642690015.3,286046998.2,N
1642690035.2,286047002.4,N
1642690055.0,286047001.5,N
1642690055.9,286047001.5,N
1642690075.7,286047001.8,N
1642690095.6,286047000.1,N
1642690115.4,286046998.1,N
1642690135.3,286046999.3,N
1642690155.1,286046998.4,N
1642690156.0,286046998.4,N
1642690175.8,286046998.2,N
1642690195.7,286046998.6,N
1642690215.5,286046998.5,N
1642690235.3,286046999.2,N
1642690255.2,286046996.9,N
1642690275.0,286046999.1,N
1642690275.9,286046999.1,N
1642690295.8,286046999.3,N
1642690315.6,286047001.2,N
1642690335.4,286046999.9,N
1642690355.3,286047000.1,N
1642690375.1,286047002.8,N
1642690395.8,286047002.6,N
1642690415.7,286047001.4,N
1642690435.5,286047003.7,N
1642690455.4,286047004.4,N
1642690475.2,286047001.6,N
1642690495.0,286047001.7,N
1642690495.9,286047001.7,N
1642690515.8,286047002.4,N
1642690535.6,286047002.4,N
1642690555.5,286047002.4,N
1642690575.3,286047000.3,N
1642690595.1,286046998.5,N
1642690615.9,286046999.8,N
1642690635.7,286047002.7,N
1642690655.5,286047000.9,N
1642690675.4,286047002.8,N
1642690695.2,286046999.8,N
1642690715.1,286047000.0,N
1642690716.0,286047000.0,N
1642690735.8,286047000.0,N
1642690755.6,286047002.6,N
1642690775.5,286047000.2,N
1642690795.3,286046999.2,N
